Regional Weather Roundup
Issued by NWS Grand Forks, ND

Home | Current Version | Previous Version | Graphics & Text | Print | Product List | Glossary On
Versions: 1 2 3 4 5 6 7 8 9 10 11 12 13 14 15 16 17 18 19 20 21 22 23 24 25 26 27 28 29 30 31 32 33 34 35 36 37 38 39 40 41 42 43 44 45 46 47 48 49 50
000
ASUS43 KFGF 220210
RWRFGF
PRAIRIE TO PINES  WEATHER ROUNDUP
NATIONAL WEATHER SERVICE EASTERN NORTH DAKOTA/GRAND FORKS ND
900 PM CDT FRI JUL 21 2017

 **SATELLITE DATA USED TO AUGMENT SKY COVER AT AUTOMATED STATIONS**
 *****  WEATHER ACROSS EASTERN NORTH DAKOTA  *****

CITY           SKY/WX    TMP DP  RH WIND       PRES   REMARKS
GRAND FORKS    FAIR      77  73  87 E9        29.73F
GRAND FRKS AFB FAIR      77  72  85 E10       29.74S
DEVILS LAKE    FAIR      77  69  76 E6        29.77F
FARGO          LGT RAIN  75  61  61 E9        29.75R
WAHPETON ARPT  FAIR      72  68  88 CALM      29.75F
$$

 ***** WEATHER ACROSS CENTRAL AND WESTERN NORTH DAKOTA  *****

CITY           SKY/WX    TMP DP  RH WIND       PRES   REMARKS
BISMARCK       FAIR      84  71  65 E7        29.76S
MINOT          FAIR      83  67  58 E5        29.73S
JAMESTOWN      MOCLDY    78  65  63 VRB3      29.74F
MINOT AFB      FAIR      77  67  72 S6        29.72R
GARRISON         N/A     79  61  53 NE7       29.77R
WILLISTON      FAIR      84  44  24 NW12      29.83R
DICKINSON      FAIR      81  36  19 NW12      29.85R
HETTINGER      FAIR      81  45  28 NW10      29.88R
$$

 *****  OTHER AIRPORT OBSERVATIONS IN OUR AREA  *****

CITY           SKY/WX    TMP DP  RH WIND       PRES   REMARKS
WALHALLA       NOT AVBL
GRAFTON AIRPOR FAIR      73  68  83 E8        29.76F
VALLEY CITY AR FAIR      72  72 100 N13G18    29.75F
CANDO          NOT AVBL
CAVALIER APRT  FAIR      72  66  83 E7        29.76S
GWINNER        CLEAR     77  68  73 NE5       29.78S
SHEYENNE NWR     N/A     77  64  65 SE3       29.95S
ROLLA            N/A     72  72 100 E6        29.78F
 ***** THE ABOVE OBSERVATIONS ARE NON NWS ARE NOT QUALITY
       CONTROLLED AND MAY MIS-REPORT RAIN FOR SNOW...
$$

  *****  WEATHER ACROSS NORTHERN MINNESOTA  *****

CITY           SKY/WX    TMP DP  RH WIND       PRES   REMARKS
FLAG ISLAND    FAIR      70  55  60 E5        29.80S
WARROAD        FAIR      70  66  88 E8        29.80F
ROSEAU         FAIR      68  63  83 E6        29.79F
HALLOCK        FAIR      72  63  73 E10       29.76F
THF RVR FALLS  FAIR      71  67  87 E7        29.78F
BAUDETTE       FAIR      69  62  78 E6        29.80S
WASKISH        NOT AVBL
CROOKSTON      FAIR      73  70  88 E6        29.75F
STEPHEN NDAWN    N/A     73  66  78 E5          N/A
GREENBUSH NDAW   N/A     70  64  83 NE3         N/A
$$
  *****  WEATHER ACROSS CENTRAL AND WEST MINNESOTA  *****

CITY           SKY/WX    TMP DP  RH WIND       PRES   REMARKS
FOSSTON        FAIR      66  64  94 S6        29.78F
BEMIDJI        FAIR      66  64  93 CALM      29.80S
PARK RAPIDS    FAIR      69  65  86 S8        29.81F
ELBOW LAKE     TSTM      67  67  98 NE16G37   29.81R VSB 3/4
WADENA         FAIR      64  64 100 E6        29.81R
DETROIT LAKES  FAIR      70  64  83 E12       29.82S
MOORHEAD       FAIR      77  59  53 NE3       29.77F
FERGUS FALLS   MOCLDY    70  70 100 SE5       29.77R
MORRIS MN      FAIR      81  73  78 E7        29.77S
STAPLES        DRIZZLE   66  64  94 N7        29.85R
$$
  *****  WEATHER ELSEWHERE ACROSS MINNESOTA  *****

CITY           SKY/WX    TMP DP  RH WIND       PRES   REMARKS
DULUTH         TSTM      63  63 100 NE5       29.90R
INTRNTL FALLS  FAIR      67  61  81 CALM      29.81F
ELY            FAIR      64  57  77 CALM      29.81R
CLOQUET        TSTM      64  61  88 E3        29.91R
WHEATON        FAIR      79  73  83 NW9       29.78F
BRAINERD       RAIN      65  65 100 E3        29.85R FOG
HIBBING        FAIR      62  61  96 E9        29.79F
ALEXANDRIA     TSTM      71  64  78 NE17G29   29.85R
SAINT CLOUD    FAIR      75  72  90 NE3       29.84R
MINNEAPOLIS    MOCLDY    79  67  66 E8        29.83R
$$

  *****  WEATHER ACROSS SOUTH DAKOTA  *****

CITY           SKY/WX    TMP DP  RH WIND       PRES   REMARKS
SIOUX FALLS    FAIR      81  75  82 E3        29.76S
BROOKINGS      FAIR      79  72  79 SE6       29.80R
WATERTOWN      FAIR      80  72  76 SE5       29.78R
HURON          FAIR      83  73  72 SE8       29.72S
SISSETON         N/A     75  68  78 W5        29.73F
ABERDEEN       CLOUDY    84  76  76 NE7       29.75R HX  93
MITCHELL       FAIR      83  75  77 SE10      29.75R HX  90
PIERRE         FAIR      92  64  39 NE3       29.70F HX  93
MOBRIDGE       FAIR      81  69  67 N18G29    29.73R
RAPID CITY     FAIR      84  43  23 N12       29.91R
$$

  *****  SOME WEATHER IN NEARBY STATES *****

CITY           SKY/WX    TMP DP  RH WIND       PRES   REMARKS
GLASGOW MT     FAIR      83  27  13 NW12      29.87R
GREAT FALLS MT FAIR      82  20  10 NW12      30.00R
CHEYENNE WY    LGT RAIN  72  49  44 W21       30.25R
SCOTTSBLUFF NE FAIR      85  57  38 CALM      29.99R
OMAHA NE       FAIR      94  75  54 S7        29.71R HX 105
DES MOINES IA  FAIR      90  73  57 S10       29.72F HX  98
DAVENPORT IA   FAIR      75  70  84 SE6       29.79F
CHICAGO IL     TSTM      78  71  79 SE16      29.89R
EAU CLAIRE WI  CLOUDY    73  66  78 E6        29.87R
LA CROSSE WI   CLOUDY    74  69  85 CALM      29.84R
$$

  *****  SOME NATIONAL WEATHER *****

CITY           SKY/WX    TMP DP  RH WIND       PRES   REMARKS
LA GUARDIA NY  MOCLDY    89  69  51 W14       29.86R HX  93
RALEIGH NC     MOCLDY    82  71  69 SW8       29.99R
ATLANTA GA     MOCLDY    88  71  57 CALM      30.03R HX  94
NEW ORLEANS LA MOCLDY    84  77  79 NE5       30.00R HX  94
OKLAHOMA CITY  FAIR      90  65  43 S10       29.89R HX  92
ALBUQUERQUE NM FAIR      85  53  33 SW17G26   30.08R
SALT LAKE CITY FAIR      93  46  19 N9        29.97S
LOS ANGELES CA FAIR      71  65  81 W15       29.88S
BOISE ID       FAIR      90  35  14 N10       29.96F
SEATTLE WA     PTSUNNY   76  51  41 W5        30.12S
$$

*** WEATHER ACROSS MANITOBA...SASKATCHEWAN AND ONTARIO ***
                ***ONTARIO***

CITY           SKY/WX    TMP DP  RH WIND       PRES   REMARKS
GERALDTON      MOCLDY    64  48  55 NE5       29.93R
THUNDER BAY    CLOUDY    64  61  88 NE7       29.86F
SIOUX LOOKOUT  MOCLDY    68  50  52 VRB2      29.87S
TORONTO        MOCLDY    75  59  57 N6        29.92S
BIG TROUT LK   CLEAR     57  48  72 W3        29.92F
PICKLE LAKE    MOCLDY    64  46  52 E5        29.92R
DRYDEN         PTCLDY    63  61  94 NE6       29.85F
KENORA         MOCLDY    64  61  88 E7        29.85S
$$
                *** MANITOBA***

CITY           SKY/WX    TMP DP  RH WIND       PRES   REMARKS
BRANDON        CLOUDY    72  64  78 SE8       29.78R
DAUPHIN        LGT RAIN  68  61  77 SE6       29.81R
ISLAND LAKE    NOT AVBL
PILOT MOUND      N/A     68  64  88 E8          N/A
THE PAS        CLOUDY    66  41  39 E5        29.87R
THOMPSON       NOT AVBL
WINNIPEG       PTCLDY    68  59  73 E7        29.79F
LYNN LAKE      CLEAR     70  39  32 S6        29.91S
CHURCHILL      PTCLDY    63  46  55 SE6       29.92F
GILLAM         MOCLDY    68  46  45 NE5       29.91S
$$
                ***SASKATCHEWAN***

CITY           SKY/WX    TMP DP  RH WIND       PRES   REMARKS
ESTEVAN        PTCLDY    73  48  40 W23       29.81R
KINDERSLEY     MOSUNNY   70  52  52 NW5       29.87S
LLOYDMINSTER   PTSUNNY   64  54  68 W5        29.88R
PRINCE ALBERT  LGT RAIN  61  59  94 N3        29.86F
REGINA         NOT AVBL
YORKTON        TSTM      61  61 100 N26G36    29.77R FOG
N. BATTLEFORD  SUNNY     63  59  88 E3        29.87F
LA RONGE       LGT RAIN  59  57  94 SW5       29.90R
SASKATOON      MOCLDY    63  57  82 NE7       29.87F
SWIFT CURRENT  CLEAR     70  46  43 NW7       29.90S
$$
NOTE: THESE ARE AUTOMATED STATIONS WITH LIMITED QUALITY CONTROL
      "FAIR" INDICATES FEW OR NO CLOUDS BELOW 12,000 FEET WITH NO
      SIGNIFICANT WEATHER AND/OR OBSTRUCTIONS TO VISIBILITY.
      SKY/WX - SKY CONDITION AND SIGNIFICANT WEATHER.
      TMP - AIR TEMPERATURE.    DP   - DEWPOINT TEMPERATURE.
      RH  - RELATIVE HUMIDITY.  PRES - PRESSURE.
      HX  - HEAT INDEX.         WCI  - WIND CHILL INDEX.
$




USA.gov is the U.S. government's official web portal to all federal, state and local government web resources and services.